Location: Gleizolles
(44.4833°N, 6.7667°E)
Time: 02:21:53
(UTC+00:00)

Vanguard 1 Rocket - Pass Details

Date: 29 June 2024
Orbit: 650 x 4219 km, 34.3° (Epoch: 15 July)

Event Time Altitude Azimuth Distance (km) Brightness Sun altitude
Rises 04:32:10 0° 276° (W) 6,376 11.2 5.4°
Reaches altitude 10° 04:35:57 10° 271° (W) 5,758 11.0 6.0°
Maximum altitude 04:54:16 48° 205° (SSW) 4,676 10.8 9.0°
Drops below altitude 10° 05:18:13 10° 141° (SE) 7,262 12.3 12.9°
Sets 05:23:52 0° 136° (SE) 8,069 12.6 13.9°
